Location: F?ge?el
(45.8833°N, 22.5833°E)
Time: 23:53:55
(UTC+00:00)

Aureole 3 Rocket - Pass Details

Date: 17 November 2025
Orbit: 398 x 1690 km, 82.5° (Epoch: 11 December)

Event Time Altitude Azimuth Distance (km) Brightness Sun altitude
Rises 16:08:58 0° 177° (S) 2,348 6.2 -12.7°
Reaches altitude 10° 16:11:00 10° 172° (S) 1,452 5.1 -13.0°
Maximum altitude 16:13:57 51° 95° (E) 515 2.3 -13.5°
Enters shadow 16:16:54 11° 19° (NNE) 1,464 4.7 -14.0°
